Change the Weather History Date:

Tuesday, August 6, 2013

  Actual Average Record
Temperature  
Mean Temperature 77 °F 74 °F  
Max Temperature 89 °F 85 °F 111 °F (1934)
Min Temperature 65 °F 64 °F 45 °F (1903)
Degree Days  
Heating Degree Days 0 0  
Month to date heating degree days 0 0  
Since 1 June heating degree days 36 23  
Since 1 July heating degree days 10 2  
Cooling Degree Days 12 9  
Month to date cooling degree days 45 56  
Year to date cooling degree days 586 635  
Since 1 June cooling degree days 509 571  
Growing Degree Days 26 (Base 50)    
Moisture  
Dew Point 69 °F    
Average Humidity 78    
Maximum Humidity 100    
Minimum Humidity 55    
Precipitation  
Precipitation 0.73 in 0.14 in 1.94 in (1924)
Month to date precipitation 0.73 0.85  
Year to date precipitation 28.31 22.94  
Sea Level Pressure  
Sea Level Pressure 29.84 in    
Wind  
Wind Speed 6 mph (SSW)    
Max Wind Speed 23 mph    
Max Gust Speed 32 mph    
Visibility 6 miles    
Events Fog , Rain , Thunderstorm    
T = Trace of Precipitation, MM = Missing Value Source: NWS Daily Summary

Daily Weather History Graph

Daily Weather History Graph

Search for Another Location

Airport or City:

Trip Planner

Search our weather history database for the weather conditions in past years. The results will help you decide how hot, cold, wet, or windy it might be!

Date:

Astronomy

Aug. 06, 2013 Rise Set
Actual Time 6:10 AM CDT 8:19 PM CDT
Civil Twilight 5:40 AM CDT 8:50 PM CDT
Nautical Twilight 5:02 AM CDT 9:27 PM CDT
Astronomical Twilight 4:21 AM CDT 10:08 PM CDT
Moon 6:02 AM CDT (8/6) 7:54 PM CDT (8/6)
Length of Visible Light 15h 10m
Length of Day
14h 09m
Waning Crescent, 0% of the Moon is Illuminated
Aug 6
Waning Crescent
Aug 6
New
Aug 14
First Quarter
Aug 20
Full
Aug 28
Last Quarter

Hourly Weather History & Observations

Time (CDT) Temp. Heat Index Dew Point Humidity Pressure Visibility Wind Dir Wind Speed Gust Speed Precip Events Conditions
12:53 AM 72.0 °F - 70.0 °F 93% 29.86 in 7.0 mi South 5.8 mph - N/A   Mostly Cloudy
1:53 AM 71.1 °F - 69.1 °F 93% 29.85 in 6.0 mi South 3.5 mph - N/A   Partly Cloudy
2:53 AM 70.0 °F - 69.1 °F 97% 29.83 in 4.0 mi SSW 4.6 mph - N/A   Scattered Clouds
3:13 AM 69.8 °F - 68.0 °F 94% 29.84 in 2.0 mi South 3.5 mph - N/A   Scattered Clouds
3:33 AM 69.8 °F - 68.0 °F 94% 29.84 in 3.0 mi Calm Calm - N/A   Mostly Cloudy
3:53 AM 71.1 °F - 69.1 °F 93% 29.82 in 3.0 mi Calm Calm - N/A   Mostly Cloudy
4:21 AM 69.8 °F - 68.0 °F 94% 29.84 in 2.0 mi South 3.5 mph - N/A   Scattered Clouds
4:33 AM 69.8 °F - 68.0 °F 94% 29.83 in 1.8 mi South 3.5 mph - N/A   Scattered Clouds
4:40 AM 69.8 °F - 68.0 °F 94% 29.82 in 0.5 mi South 3.5 mph - N/A Fog Fog
4:42 AM 68.0 °F - 68.0 °F 100% 29.82 in 0.2 mi South 3.5 mph - N/A Fog Fog
4:53 AM 68.0 °F - 66.9 °F 96% 29.81 in 0.2 mi Calm Calm - N/A Fog Fog
5:53 AM 64.9 °F - 64.9 °F 100% 29.82 in 0.2 mi Calm Calm - N/A Fog Fog
6:53 AM 66.9 °F - 66.9 °F 100% 29.84 in 0.2 mi SE 3.5 mph - N/A Fog Fog
7:26 AM 69.8 °F - 68.0 °F 94% 29.87 in 1.0 mi Calm Calm - N/A   Overcast
7:32 AM 69.8 °F - 69.8 °F 100% 29.87 in 3.0 mi SSE 4.6 mph - N/A   Overcast
7:40 AM 69.8 °F - 69.8 °F 100% 29.89 in 4.0 mi South 3.5 mph - N/A   Overcast
7:53 AM 70.0 °F - 70.0 °F 100% 29.88 in 3.0 mi South 3.5 mph - N/A   Overcast
8:20 AM 71.6 °F - 69.8 °F 94% 29.89 in 4.0 mi South 8.1 mph - N/A   Overcast
8:53 AM 71.1 °F - 70.0 °F 96% 29.88 in 6.0 mi SSW 8.1 mph - N/A   Overcast
9:25 AM 75.2 °F - 71.6 °F 89% 29.88 in 6.0 mi SSW 8.1 mph - N/A   Scattered Clouds
9:37 AM 75.2 °F - 71.6 °F 89% 29.89 in 10.0 mi SSW 5.8 mph - N/A   Mostly Cloudy
9:53 AM 75.0 °F - 71.1 °F 87% 29.87 in 10.0 mi South 8.1 mph - N/A   Mostly Cloudy
10:34 AM 78.8 °F - 71.6 °F 78% 29.89 in 10.0 mi SW 6.9 mph - N/A   Scattered Clouds
10:53 AM 79.0 °F - 72.0 °F 79% 29.86 in 10.0 mi West 5.8 mph - N/A   Clear
11:53 AM 82.0 °F 87.4 °F 73.0 °F 74% 29.84 in 10.0 mi SW 8.1 mph - N/A   Clear
12:53 PM 84.0 °F 90.2 °F 73.0 °F 69% 29.81 in 10.0 mi SW 9.2 mph - N/A   Mostly Cloudy
1:53 PM 84.9 °F 90.1 °F 71.1 °F 63% 29.78 in 10.0 mi SSE 4.6 mph - N/A   Partly Cloudy
2:53 PM 87.1 °F 91.3 °F 69.1 °F 55% 29.79 in 10.0 mi South 4.6 mph - N/A   Scattered Clouds
3:53 PM 87.1 °F 92.0 °F 70.0 °F 57% 29.79 in 10.0 mi SSW 8.1 mph - N/A   Scattered Clouds
4:53 PM 88.0 °F 94.7 °F 72.0 °F 59% 29.80 in 10.0 mi South 8.1 mph - N/A   Mostly Cloudy
5:53 PM 88.0 °F 92.1 °F 69.1 °F 53% 29.79 in 10.0 mi SSW 3.5 mph - N/A   Clear
6:53 PM 87.1 °F 92.0 °F 70.0 °F 57% 29.78 in 10.0 mi SE 5.8 mph - N/A   Clear
7:10 PM 84.2 °F 89.6 °F 71.6 °F 66% 29.81 in 10.0 mi SE 8.1 mph - N/A Thunderstorm Scattered Clouds
7:40 PM 78.8 °F - 66.2 °F 65% 29.81 in 10.0 mi SSE 12.7 mph - N/A   Overcast
7:53 PM 79.0 °F - 66.0 °F 64% 29.78 in 10.0 mi South 10.4 mph 23.0 mph N/A Thunderstorm Overcast
8:53 PM 71.1 °F - 64.9 °F 81% 29.80 in 2.5 mi SSW 21.9 mph 27.6 mph 0.24 in Rain , Thunderstorm Heavy Thunderstorms and Rain
9:06 PM 69.8 °F - 66.2 °F 88% 29.86 in 3.0 mi West 8.1 mph - 0.14 in Rain , Thunderstorm Heavy Thunderstorms and Rain
9:14 PM 68.0 °F - 64.4 °F 88% 29.88 in 2.0 mi NW 17.3 mph 21.9 mph 0.27 in Rain , Thunderstorm Heavy Thunderstorms and Rain
9:21 PM 71.6 °F - 66.2 °F 83% 29.90 in 3.0 mi WNW 18.4 mph 26.5 mph 0.31 in Rain , Thunderstorm Heavy Thunderstorms and Rain
9:41 PM 69.8 °F - 66.2 °F 88% 29.85 in 2.5 mi SSE 9.2 mph - 0.48 in Rain , Thunderstorm Heavy Thunderstorms and Rain
9:51 PM 69.8 °F - 64.4 °F 83% 29.85 in 9.0 mi Variable 4.6 mph - 0.49 in Rain Light Rain
9:53 PM 70.0 °F - 64.9 °F 84% 29.84 in 10.0 mi West 6.9 mph - 0.49 in Rain Light Rain
10:53 PM 70.0 °F - 66.0 °F 87% 29.82 in 10.0 mi Calm Calm - 0.00 in   Clear
11:53 PM 71.1 °F - 66.0 °F 84% 29.81 in 10.0 mi South 5.8 mph - N/A   Clear